This demonstration page uses our WeatherBlox Daily Observations layout. Learn more.

Hourly Observations for June 30, 2015

Temp ( °F °C ) Dew Point ( °F °C ) Humidity (%) Winds ( mph kmh ) Pressure ( in mb ) Visibility ( mi km ) Precip ( " mm )
12:15 am 00:15 Clear 71 21.5 60 15.7 70 70 Calm 29.91 1013 10 16.0934 0 0
12:35 am 00:35 Clear 71 21.5 60 15.5 69 69 Calm 29.94 1014 10 16.0934 0 0
12:55 am 00:55 Clear 71 21.8 59 15 65 65 S 5 7 29.94 1014 10 16.0934 0 0
1:15 am 01:15 Clear 72 22.1 58 14.6 63 63 SSW 5 7 29.94 1014 10 16.0934 0 0
1:35 am 01:35 Clear 69 20.8 59 15 70 70 SW 5 7 29.94 1014 10 16.0934 0 0
1:55 am 01:55 Clear 71 21.5 59 14.8 66 66 SSW 7 11 29.94 1014 10 16.0934 0 0
2:15 am 02:15 Clear 69 20.8 59 15 70 70 SW 7 11 29.94 1014 10 16.0934 0 0
2:35 am 02:35 Clear 70 21 59 15 69 69 SW 6 9 29.91 1013 10 16.0934 0 0
2:55 am 02:55 Clear 69 20.7 59 15.1 70 70 SSW 6 9 29.91 1013 10 16.0934 0 0
3:15 am 03:15 Clear 69 20.5 59 15 71 71 SSW 6 9 29.91 1013 10 16.0934 0 0
3:35 am 03:35 Clear 69 20.6 59 15 70 70 SSW 5 7 29.91 1013 10 16.0934 0 0
3:55 am 03:55 Clear 69 20.5 58 14.7 70 70 SSW 6 9 29.91 1013 10 16.0934 0 0
4:15 am 04:15 Clear 68 20.1 58 14.5 70 70 SW 6 9 29.91 1013 10 16.0934 0 0
4:35 am 04:35 Clear 69 20.6 57 14.1 66 66 SSW 7 11 29.91 1013 10 16.0934 0 0
4:55 am 04:55 Partly Cloudy 69 20.8 57 13.9 65 65 SSW 6 9 29.91 1013 10 16.0934 0 0
5:15 am 05:15 Partly Cloudy 70 21 57 13.7 63 63 SSW 5 7 29.91 1013 10 16.0934 0 0
5:35 am 05:35 Partly Cloudy 68 20 57 14 69 69 Calm 29.91 1013 10 16.0934 0 0
5:55 am 05:55 Partly Cloudy 67 19.5 57 14.1 71 71 Calm 29.91 1013 10 16.0934 0 0
6:15 am 06:15 Partly Cloudy 66 18.7 57 14.1 75 75 Calm 29.94 1014 10 16.0934 0 0
6:35 am 06:35 Sunny 65 18.5 58 14.2 76 76 Calm 29.94 1014 10 16.0934 0 0
6:55 am 06:55 Sunny 66 19 58 14.2 74 74 Calm 29.94 1014 10 16.0934 0 0
7:15 am 07:15 Sunny 67 19.5 59 14.8 74 74 S 5 7 29.91 1013 10 16.0934 0 0
7:35 am 07:35 Sunny 69 20.8 58 14.7 68 68 S 3 6 29.91 1013 10 16.0934 0 0
7:55 am 07:55 Sunny 72 22 59 15 65 65 S 6 9 29.91 1013 10 16.0934 0 0
8:15 am 08:15 Sunny 73 22.9 60 15.3 62 62 S 7 11 29.91 1013 10 16.0934 0 0
8:35 am 08:35 Sunny 75 23.7 59 15 58 58 SSW 8 13 29.88 1012 10 16.0934 0 0
8:55 am 08:55 Sunny 75 24 59 14.8 57 57 SSW 9 15 29.88 1012 10 16.0934 0 0
9:15 am 09:15 Sunny 75 24.1 58 14.4 55 55 SSW 10 17 29.88 1012 10 16.0934 0 0
9:35 am 09:35 Sunny 77 25.1 59 15 54 54 SSW 7 11 29.88 1012 10 16.0934 0 0
9:55 am 09:55 Sunny 79 26.1 60 15.6 52 52 SSW 6 9 29.88 1012 10 16.0934 0 0
10:15 am 10:15 Sunny 81 27 61 16 51 51 SSW 7 11 29.83 1010 10 16.0934 0 0
10:35 am 10:35 Sunny 81 27.4 61 16.3 51 51 S 8 13 29.83 1010 10 16.0934 0 0
10:55 am 10:55 Sunny 83 28.3 62 16.5 49 49 SSW 9 15 29.83 1010 10 16.0934 0 0
11:15 am 11:15 Sunny 85 29.2 60 15.5 43 43 SW 9 15 29.83 1010 10 16.0934 0 0
11:35 am 11:35 Sunny 84 29 61 15.9 45 45 SW 7 11 29.83 1010 10 16.0934 0 0
11:55 am 11:55 Sunny 85 29.5 60 15.8 43 43 SSW 9 15 29.83 1010 10 16.0934 0 0
12:15 pm 12:15 Sunny 87 30.8 59 15.1 39 39 SSW 9 15 29.77 1008 10 16.0934 0 0
12:35 pm 12:35 Sunny 88 31.3 61 16.1 40 40 SSW 9 15 29.77 1008 10 16.0934 0 0
12:55 pm 12:55 Sunny 89 31.6 60 15.8 38 38 SW 10 17 29.77 1008 10 16.0934 0 0
1:15 pm 13:15 Sunny 90 32 59 15.2 36 36 SSW 7 11 29.77 1008 10 16.0934 0 0
1:35 pm 13:35 Sunny 90 32.2 61 16.1 38 38 SW 7 11 29.77 1008 10 16.0934 0 0
1:55 pm 13:55 Sunny 92 33.3 58 14.7 33 33 SSW 9 15 29.74 1007 10 16.0934 0 0
2:15 pm 14:15 Sunny 92 33.6 56 13.3 29 29 SSW 9 15 29.71 1006 10 16.0934 0 0
2:35 pm 14:35 Sunny 93 34.1 56 13.1 28 28 SW 9 15 29.71 1006 10 16.0934 0 0
2:55 pm 14:55 Sunny 92 33.5 54 12.1 27 27 W 7 11 29.71 1006 10 16.0934 0 0
3:15 pm 15:15 Sunny 94 34.5 56 13.1 27 27 SW 7 11 29.71 1006 10 16.0934 0 0
3:35 pm 15:35 Sunny 93 34 56 13.3 29 29 W 7 11 29.68 1005 10 16.0934 0 0
3:55 pm 15:55 Sunny 92 33.6 54 12.3 27 27 SW 3 6 29.68 1005 10 16.0934 0 0
4:15 pm 16:15 Sunny 94 34.5 50 10.1 22 22 SSW 5 7 29.68 1005 10 16.0934 0 0
4:35 pm 16:35 Sunny 94 34.5 53 11.8 25 25 SSW 8 13 29.68 1005 10 16.0934 0 0
4:55 pm 16:55 Sunny 94 34.3 52 11.1 24 24 S 5 7 29.68 1005 10 16.0934 0 0
5:15 pm 17:15 Sunny 93 33.9 55 12.5 27 27 S 3 6 29.65 1004 10 16.0934 0 0
5:35 pm 17:35 Sunny 91 33 61 16 36 36 Calm 29.65 1004 10 16.0934 0 0
5:55 pm 17:55 Sunny 90 32.2 64 17.7 42 42 SE 3 6 29.68 1005 10 16.0934 0 0
6:15 pm 18:15 Sunny 90 32 65 18.6 45 45 ESE 5 7 29.65 1004 10 16.0934 0 0
6:35 pm 18:35 Sunny 89 31.6 67 19.5 49 49 ESE 5 7 29.65 1004 7 11.26538 0 0
7:15 pm 19:15 Sunny 88 30.9 67 19.4 50 50 ESE 5 7 29.65 1004 7 11.26538 0 0
9:15 pm 21:15 Clear 80 26.8 63 17.1 55 55 ESE 7 11 29.68 1005 10 16.0934 0 0
9:35 pm 21:35 Clear 80 26.7 61 16 52 52 SE 8 13 29.68 1005 10 16.0934 0 0
9:55 pm 21:55 Clear 80 26.6 60 15.6 51 51 ESE 7 11 29.68 1005 10 16.0934 0 0
10:15 pm 22:15 Clear 78 25.5 62 16.6 58 58 ESE 9 15 29.68 1005 10 16.0934 0 0
10:35 pm 22:35 Clear 78 25.6 62 16.6 58 58 ESE 8 13 29.68 1005 10 16.0934 0 0
10:55 pm 22:55 Clear 77 25.2 62 16.7 59 59 ESE 8 13 29.68 1005 10 16.0934 0 0
11:15 pm 23:15 Clear 77 25 63 17.2 62 62 E 7 11 29.68 1005 10 16.0934 0 0
11:35 pm 23:35 Clear 76 24.3 64 17.7 67 67 E 7 11 29.71 1006 10 16.0934 0 0
11:55 pm 23:55 Clear 75 24 65 18.2 70 70 E 7 11 29.71 1006 10 16.0934 0 0

Powered by AerisWeather